Regional Weather Roundup
Issued by NWS Austin/San Antonio, TX

Home | Current Version | Previous Version | Text Only | Print | Product List | Glossary On
Versions: 1 2 3 4 5 6 7 8 9 10 11 12 13 14 15 16 17 18 19 20 21 22 23 24 25 26 27 28 29 30 31 32 33 34 35 36 37 38 39 40 41 42 43 44 45 46 47 48 49 50
166
ASUS44 KEWX 241001
RWREWX
SOUTH TEXAS REGIONAL WEATHER ROUNDUP
NATIONAL WEATHER SERVICE AUSTIN/SAN ANTONIO TX
500 AM CDT SAT AUG 24 2019

NOTE: "FAIR" INDICATED FEW OR NO CLOUDS BELOW 12,000 FEET WITH NO
SIGNIFICANT WEATHER AND/OR OBSTRUCTIONS TO VISIBILITY.

* - THESE STATIONS ARE NOT NWS OR FAA STATIONS...AND ARE NOT SUBJECT
    TO NWS AND FAA QUALITY CONTROL.

TXZ171-172-183>190-241100-
TEXAS HILL COUNTRY AND EDWARDS PLATEAU

CITY           SKY/WX    TMP DP  RH WIND       PRES   REMARKS
JUNCTION       MOCLDY    75  71  87 NW3       29.96F
*LLANO         CLEAR     75  73  94 E5        29.98S
BURNET         PTCLDY    79  71  76 CALM      29.97F
*HORSESHOE BAY LGT RAIN  79  73  83 E3        29.94F
*KERRVILLE     MOCLDY    74  71  91 CALM      29.95F
*FREDERICKSBRG CLOUDY    74  71  88 S5        29.96S
*ROCKSPRINGS   PTCLDY    72  72 100 S5        30.02F
*BOERNE        CLEAR     73  73 100 CALM      29.94F
*CASTROVILLE   CLEAR     78  70  77 E5        29.92F
HONDO          CLEAR     78  71  79 E7        29.90F
*UVALDE        CLEAR     74  74  99 CALM      29.92S
DEL RIO        CLEAR     78  72  81 E8        29.89S
LAUGHLIN AFB   CLEAR     76  72  88 E8        29.90F
SPOFFORD       CLEAR     74  73  96 NE5       29.86S
*EAGLE PASS    CLEAR     75  70  83 VRB3      29.91R
CARRIZO SPRGS  MOCLDY    73  73 100 CALM      29.89R
$$

TXZ173-191>194-202-209-217>225-228-241100-
CENTRAL AND SOUTH CENTRAL TEXAS

CITY           SKY/WX    TMP DP  RH WIND       PRES   REMARKS
GEORGETOWN     PTCLDY    78  73  84 E3        29.96F
AUSTIN/BERGSTM CLOUDY    78  74  87 NE5       29.92F
AUSTIN/MABRY   PTCLDY    79  72  79 CALM      29.94F
*AUSTIN/EXEC   CLOUDY    75  73  94 E3        29.94F
*LAGO VISTA    LGT RAIN  74  72  92 CALM      29.96F
SAN MARCOS     CLOUDY    76  73  91 NE6       29.92S
NEW BRAUNFELS  MOCLDY    76  72  87 N3        29.90F
RANDOLPH AFB   CLOUDY    77  74  91 CALM      29.91F
SEGUIN         CLEAR     74  72  93 E3        29.94F
KELLY FIELD    CLEAR     79  74  85 NE7       29.88F
SAN ANTONIO    MOCLDY    79  74  84 E5        29.91F
STINSON FIELD  MOCLDY    80  75  84 E6        29.88F
PLEASANTON     MOCLDY    77  73  88 CALM      29.89S
*LA GRANGE     CLEAR     77  77 100 CALM      29.90S
*GIDDINGS      CLEAR     78  78  99 CALM      29.94S
*GONZALES      CLEAR     76  76  98 CALM      29.90F
$$

TXZ163>164-176>182-195>201-210>213-226-227-235-241100-
SOUTHEAST TEXAS

CITY           SKY/WX    TMP DP  RH WIND       PRES   REMARKS
COLLEGE STN    MOCLDY    78  75  90 NE6       29.94S
*BRYAN         CLOUDY    77  77 100 NE3       29.96R
*CALDWELL      CLOUDY    77  75  93 CALM      29.94F
*CROCKETT      CLEAR     73  72  94 CALM      29.99F
*BRENHAM       PTCLDY    76  76 100 NE3       29.94S
HUNTSVILLE     CLEAR     75  73  93 CALM      29.94F
CONROE         CLEAR     75  74  96 N3        29.94S
HOUSTON BUSH   MOCLDY    77  74  90 N5        29.92S
HOUSTON HOBBY  MOCLDY    78  73  84 NE3       29.90F
*HOUSTON SW AP FAIR      74  74 100 CALM      29.92S
PEARLAND       FAIR      77  74  90 CALM      29.92S
HOUSTON HOOKS  FAIR      76  73  91 N5        29.93R
ELLINGTON FLD  NOT AVBL
SUGAR LAND     FAIR      77  76  96 NE3       29.91R
*HOUSTON EXEC  FAIR      75  75 100 CALM      29.93S
*CLEVELAND MUN CLOUDY    74  74 100 CALM      29.95S
*WHARTON       CLOUDY    75  74  97 N5        29.90F
*COLUMBUS      MOCLDY    75  72  91 CALM      29.92F
*EAGLE LAKE    MOCLDY    78  77  98 CALM      29.91F
$$

TXZ214>216-236>238-241100-
THE UPPER TEXAS COAST

CITY           SKY/WX    TMP DP  RH WIND       PRES   REMARKS
*ORANGE        MOCLDY    78  78  99 CALM      29.95R
PORT ARTHUR    MOCLDY    77  74  90 SW7       29.92S
GALVESTON      LGT RAIN  79  77  94 N7        29.90F
ANGLETON       MOCLDY    76  74  93 NW3       29.90S
*BAY CITY      PTCLDY    78  78  98 CALM      29.89F
PALACIOS       PTCLDY    81  75  82 N3        29.89S
$$

TXZ229>234-239>247-241100-
TEXAS COASTAL BEND AND RIO GRANDE PLAINS

CITY           SKY/WX    TMP DP  RH WIND       PRES   REMARKS
VICTORIA       CLEAR     77  75  93 NE3       29.90S
*BEEVILLE      NOT AVBL
ROCKPORT       PTCLDY    83  78  85 S6        29.87S HX  93
*PORT ARANSAS  MOCLDY    83  80  88 S7        29.88F HX  95
*PORT LAVACA   MOCLDY    81  79  94 CALM      29.89S
*INGLESIDE     PTCLDY    84  79  86 S6        29.87S HX  96
CORPUS CHRISTI MOCLDY    80  77  90 SE3       29.87S
CORPUS NAS     MOCLDY    83  82  97 S8        29.86F HX  98
*ROBSTOWN      CLEAR     79  76  90 CALM      29.88S
ALICE          CLEAR     79  76  90 SE5       29.86F
KINGSVILLE NAS PTCLDY    80  76  87 NE3       29.87S
COTULLA        CLEAR     81  69  67 CALM      29.88S
LAREDO         CLEAR     80  71  74 E7        29.85F
$$

TXZ248>255-241100-
DEEP SOUTH TEXAS

CITY           SKY/WX    TMP DP  RH WIND       PRES   REMARKS
BROWNSVILLE    MOCLDY    84  82  94 SE5       29.85R HX 100
PORT ISABEL    RAIN      82  77  84 SE8       29.84F HX  90
HARLINGEN      CLOUDY    80  78  94 E3        29.85S
*HEBBRONVILLE  CLEAR     78  73  85 CALM      29.88F
MCALLEN        CLEAR     83  77  82 SE6       29.85F HX  92
*WESLACO       CLEAR     81  76  84 CALM      29.84F
FALFURRIAS     CLEAR     81  76  87 NE5       29.86S
EDINBURG       FAIR      81  76  84 E3        29.85S
*ZAPATA        FAIR      83  72  69 CALM      29.86F
$$

TXZ213>215-236>238-242>244-246-247-251-254-255-241100-
CMAN STATIONS

STATION/POSITION TIME  TEMP    WIND        PRES    WAVE
                       AIR SEA DIR/SP/G            HT/PER
                 (UTC) (F)     (DEG/KT/KT) (MB)    (FT/S)
SABINE PASS      0924   83 88  170/  9/ 14 1014.7
NORTH JETTY/GLS  0918   78 86  270/ 13/ 16 1011.8
EAGLE POINT      0924   78 84  150/  7/  9 1012.2
MORGANS POINT    0924   81 87   CALM  /  2 1012.9
PORT O`CONNOR    0918   83 88  220/  7/  9 1011.6
PORT ARANSAS     0900   83 86  170/ 13/ 14 1011.6
MALAQUITE BEACH  0918   83 87  150/ 10/ 14 1011.2
BAFFIN BAY       0918   83 87  140/ 10/ 11 1011.3
PORT ISABEL      0918   80 83  180/ 14/ 18 1011.4
$$




USA.gov is the U.S. government's official web portal to all federal, state and local government web resources and services.